星链-5141 (STARLINK-5141 )

导读

STARLINK-5141是美国SpaceX公司星链星座的成员,于2023年2月2日发射升空。星链计划旨在构建全球低轨互联网通信系统,该卫星沿用星链量产设计,搭载Ku/Ka波段通信载荷与氪工质霍尔推进器,具备自主避撞能力,服役后为全球用户提供低时延宽带卫星互联网服务,预计使用寿命5-7年,退役后会主动离轨在大气层烧毁。

Basic Information
目录编号:
55500
目录名称:
STARLINK-5141
国际标识:
2023-015BD
轨道中心:
EARTH
卫星名称:
星链-5141
卫星全名:
星链-5141 (STARLINK-5141 )
卫星状态:
在轨 (已飞行1231 天)
发射日期:
2023-02-02 UTC
国别 :
美国 (US)
星等 :
--
Orbit Information
数据来源 国际轨道数据 AOE轨道数据
星历时间 2026-06-17T13:05:46+0800
3小时前
查看轨道信息
2026-06-16T23:00:00+0800
17小时前
查看轨道信息
半长轴 6861.178km 6861.156km
偏心率 0.0000645 0.000028
轨道倾角 43.003° 43.001°
近地点辐角 241.329° 46.571°
升交点赤经 137.871° 141.191°
平近点角 118.750° 319.778°
近地点 482.598km 482.826km
远地点 483.484km 483.212km
周期 94.267分钟 94.266分钟
每日圈数 15.275829 15.275902
Detailed Information
固有亮度:
5
最大亮度:
2.5
卫星平台:
Starlink v1.5
覆盖范围:
全球
运营商:
太空探索技术公司
运营商所在国:
美国
制造商(研发单位):
太空探索技术公司
制造商所在国:
美国
使用方式:
暂无
Satellite Introduction
星链(Starlink)计划是由太空探索技术公司(SpaceX)提出的一个巨型低轨卫星互联网星座项目,计划在2019年至2024年间在太空搭建由约1.2万颗卫星组成的“星链”网络,其中1584颗将部署在地球上空550千米处的近地轨道,并从2020年开始工作。该卫星仍在工作。
2D Orbit Map
3D Orbit Map
Orbit Altitude Analysis Chart
Orbit Inclination Analysis Chart
Orbit Comprehensive Analysis Chart
View Comprehensive Chart